Tracking 29892 objects as of 21-Nov-2024
HD Live streaming from Space Station
objects crossing your sky now

TITAN 3C TRANSTAGE DEB

Track TITAN 3C TRANSTAGE DEB now!


NORAD ID: 26527
Int'l Code: 1965-108AN
Perigee: 644.6 km
Apogee: 30,046.8 km
Inclination: 26.5 °
Period: 530.8 minutes
Semi major axis: 21716 km
RCS: 0.0675 m2 (small)
Launch date: December 21, 1965
Source: United States (US)
Launch site: AIR FORCE EASTERN TEST RANGE (AFETR)

Note: This is SATELLITE DEBRIS
Your satellite tracking list
Your tracking list is empty




NASA's NSSDC Master Catalog

Two Line Element Set (TLE):
1 26527U 65108AN  24320.86783625  .00000542  00000-0  66890-2 0  9990
2 26527  26.5134 185.3343 6769496 129.5671 355.3815  2.71276919254094
Source of the keplerian elements: AFSPC